sat.trackr.live / text

‹ back to catalog

STARLINK-32338

NORAD 61519 · 2024-183L

PAYLOAD ACTIVE UNKNOWN

§ Identity

Operator
Country
US
Launch date
2024-10-15
Launch site
AFETR
Launch vehicle
Mass (kg)
RCS (m²)

Purposes: comms

External: N2YO · Heavens-Above · Gunter

§ Orbital elements

Epoch: 2026-05-24T23:58:30.792864Z

Period
93.38 min
Inclination
53.1599°
Eccentricity
0.0001222
Mean motion
15.42147368 rev/d
Perigee alt
438.9 km
Apogee alt
440.6 km
Semi-major
6,817.9 km
B*
-2.9264e-5
RAAN
145.2996°
Arg perigee
82.5381°
Mean anomaly
277.5764°
Rev number
9,137

§ Raw data

STARLINK-323381 61519U 24183L   26144.99896751 -.00001684  00000+0 -29264-4 0  99982 61519  53.1599 145.2996 0001222  82.5381 277.5764 15.42147368 91375

JSON: /api/v1/satellites/61519 · /tle

For live sub-satellite position, see the globe view (requires WebGL).

§ Visibility from observer

Set your observer location to see the next 7 days of passes ≥ 10°. The values pass through the URL so the page stays shareable.

No JS? Fill the form by hand. The geolocation button needs JavaScript.